Muskegon, MI

2:57 AM EST on December 10, 2019 (GMT -0500)
Muskegon County

Weather History for KMKG - November, 2019

Change the Weather History Date:

Tuesday, November 19, 2019

  Actual Average Record
Temperature  
Mean Temperature 40 °F 39 °F  
Max Temperature 43 °F 45 °F 74 °F (1930)
Min Temperature 36 °F 33 °F 10 °F (1986)
Degree Days  
Heating Degree Days 25 26  
Month to date heating degree days 579 433  
Since 1 July heating degree days 1085 1056  
Cooling Degree Days 0 0  
Month to date cooling degree days 0 0  
Year to date cooling degree days 640 566  
Moisture  
Dew Point 34 °F    
Average Humidity 81    
Maximum Humidity 92    
Minimum Humidity 70    
Precipitation  
Precipitation 0.00 in 0.12 in 1.35 in (1913)
Month to date precipitation 1.50 2.18  
Year to date precipitation 42.32 29.76  
Snow  
Snow 0.00 in 0.20 in 5.00 in (1914)
Month to date snowfall 10.9 2.3  
Since 1 July snowfall 10.9 2.5  
Since 1 September snowfall 10.9 2.5  
Snow Depth 0.00 in    
Sea Level Pressure  
Sea Level Pressure 29.82 in    
Wind  
Wind Speed 2 mph (SW)    
Max Wind Speed 9 mph    
Max Gust Speed 12 mph    
Visibility 4 miles    
Events      
T = Trace of Precipitation, MM = Missing Value Source: NWS Daily Summary

Daily Weather History Graph

Daily Weather History Graph

Search for Another Location

Airport or City:

Astronomy

Nov. 19, 2019 Rise Set
Actual Time 7:42 AM EST 5:17 PM EST
Civil Twilight 7:11 AM EST 5:48 PM EST
Nautical Twilight 6:36 AM EST 6:23 PM EST
Astronomical Twilight 6:03 AM EST 6:57 PM EST
Moon No Moon Rise 1:51 PM EST (11/19)
Length of Visible Light 10h 37m
Length of Day
9h 35m
Waning Gibbous, 52% of the Moon is Illuminated
Nov 19
Waning Gibbous
Nov 19
Last Quarter
Nov 26
New
Dec 4
First Quarter
Dec 12
Full

Hourly Weather History & Observations

Time (EST) Temp. Windchill Dew Point Humidity Pressure Visibility Wind Dir Wind Speed Gust Speed Precip Events Conditions
12:55 AM 37.0 °F - 34.0 °F 89% 29.77 in 4.0 mi Calm Calm - N/A   Overcast
1:55 AM 37.0 °F - 34.0 °F 89% 29.76 in 4.0 mi Calm Calm - N/A   Overcast
2:38 AM 37.0 °F - 34.0 °F 89% 29.75 in 2.5 mi Calm Calm - N/A   Overcast
2:55 AM 37.0 °F 34.5 °F 34.0 °F 89% 29.77 in 3.0 mi ESE 3.5 mph - N/A   Overcast
3:55 AM 37.0 °F - 34.0 °F 89% 29.76 in 3.0 mi Calm Calm - N/A   Overcast
4:14 AM 37.0 °F 33.3 °F 34.0 °F 89% 29.73 in 2.5 mi ESE 4.6 mph - N/A   Overcast
4:55 AM 37.0 °F 34.5 °F 34.0 °F 89% 29.75 in 2.5 mi ESE 3.5 mph - N/A   Overcast
5:14 AM 37.0 °F 34.5 °F 34.0 °F 89% 29.74 in 3.0 mi ESE 3.5 mph - N/A   Overcast
5:30 AM 37.0 °F 33.3 °F 34.0 °F 89% 29.74 in 2.5 mi ESE 4.6 mph - N/A   Overcast
5:55 AM 37.0 °F - 35.1 °F 93% 29.76 in 2.5 mi Calm Calm - N/A   Overcast
6:15 AM 37.0 °F - 34.0 °F 89% 29.74 in 3.0 mi Calm Calm - N/A   Overcast
6:55 AM 37.0 °F - 34.0 °F 89% 29.78 in 3.0 mi Calm Calm - N/A   Overcast
7:18 AM 37.0 °F - 34.0 °F 89% 29.76 in 2.5 mi Calm Calm - N/A   Overcast
7:38 AM 37.0 °F - 34.0 °F 89% 29.77 in 2.5 mi Calm Calm - N/A   Overcast
7:55 AM 37.0 °F - 34.0 °F 89% 29.79 in 2.5 mi Calm Calm - N/A   Overcast
8:16 AM 37.0 °F - 34.0 °F 89% 29.78 in 1.5 mi Calm Calm - N/A   Overcast
8:29 AM 37.0 °F - 34.0 °F 89% 29.78 in 2.0 mi Calm Calm - N/A   Overcast
8:47 AM 37.9 °F - 35.1 °F 89% 29.78 in 1.8 mi Calm Calm - N/A   Overcast
8:55 AM 37.9 °F - 35.1 °F 89% 29.80 in 1.5 mi Calm Calm - N/A   Overcast
9:07 AM 37.9 °F 35.5 °F 35.1 °F 89% 29.78 in 1.5 mi ESE 3.5 mph - N/A   Overcast
9:50 AM 37.4 °F - 35.6 °F 93% 29.79 in 1.2 mi Calm Calm - N/A   Overcast
9:55 AM 37.9 °F - 35.1 °F 89% 29.80 in 1.2 mi Calm Calm - N/A   Overcast
10:30 AM 37.9 °F - 36.0 °F 93% 29.80 in 2.0 mi Calm Calm - N/A   Overcast
10:41 AM 37.9 °F - 36.0 °F 93% 29.80 in 1.8 mi Calm Calm - N/A   Overcast
10:55 AM 39.0 °F - 36.0 °F 89% 29.82 in 1.8 mi Calm Calm - N/A   Overcast
11:07 AM 39.0 °F 36.8 °F 36.0 °F 89% 29.81 in 2.0 mi SE 3.5 mph - N/A   Overcast
11:23 AM 39.0 °F - 36.0 °F 89% 29.81 in 2.5 mi Calm Calm - N/A   Overcast
11:33 AM 39.0 °F - 36.0 °F 89% 29.81 in 2.5 mi Calm Calm - N/A   Overcast
11:55 AM 39.0 °F - 36.0 °F 89% 29.83 in 2.5 mi Calm Calm - N/A   Overcast
12:55 PM 41.0 °F - 37.0 °F 86% 29.83 in 2.5 mi Calm Calm - N/A   Overcast
1:17 PM 41.0 °F - 37.0 °F 86% 29.81 in 2.5 mi Calm Calm - N/A   Overcast
1:31 PM 42.1 °F - 36.0 °F 79% 29.81 in 6.0 mi Calm Calm - N/A   Haze
1:55 PM 41.0 °F - 36.0 °F 82% 29.83 in 6.0 mi Calm Calm - N/A   Haze
2:55 PM 42.1 °F 38.4 °F 34.0 °F 73% 29.85 in 9.0 mi West 5.8 mph - N/A   Overcast
3:55 PM 41.0 °F 36.4 °F 33.1 °F 73% 29.87 in 10.0 mi West 6.9 mph - N/A   Overcast
4:25 PM 41.0 °F 38.0 °F 33.1 °F 73% 29.87 in 10.0 mi West 4.6 mph - N/A   Overcast
4:55 PM 41.0 °F 37.1 °F 33.1 °F 73% 29.90 in 10.0 mi West 5.8 mph - N/A   Overcast
5:55 PM 39.9 °F 37.8 °F 33.1 °F 77% 29.91 in 10.0 mi West 3.5 mph - N/A   Overcast
6:25 PM 37.9 °F 35.5 °F 30.9 °F 76% 29.91 in 10.0 mi West 3.5 mph - N/A   Overcast
6:55 PM 37.9 °F - 32.0 °F 79% 29.93 in 10.0 mi Calm Calm - N/A   Overcast
7:02 PM 37.0 °F - 32.0 °F 82% 29.91 in 9.0 mi Calm Calm - N/A   Overcast
7:55 PM 37.9 °F - 32.0 °F 79% 29.95 in 9.0 mi Calm Calm - N/A   Overcast
8:55 PM 39.0 °F 36.8 °F 30.9 °F 73% 29.96 in 10.0 mi WSW 3.5 mph - N/A   Overcast
9:55 PM 39.0 °F 34.8 °F 30.9 °F 73% 29.99 in 10.0 mi WNW 5.8 mph - N/A   Overcast
10:55 PM 37.9 °F - 32.0 °F 79% 30.00 in 10.0 mi Calm Calm - N/A   Overcast
11:55 PM 37.9 °F 34.4 °F 32.0 °F 79% 30.01 in 10.0 mi NW 4.6 mph - N/A   Overcast